Probability
0 0 0 0 0 0 0 0 0 0 0 0 0 0 0 0 0 0 0 0 0 0 0 0 0 0 0 0 0 0 0 0 0 0 0 0 0 0 0 0 0 0 0 0
0 0 0 0 0 0 0 0 0 0 0 0 0 0 0 0 0 0 0 0 0 0 0 0 0 0 0 0 0 0 0 0 0 0 0 0 0 0 0 0 0 0 0 0
0 0 0 0 0 0 0 0 0 0 0 0 0 0 0 0 0 0 0 0 0 0 0 0 0 0 0 0 0 0 0 0 0 0 0 0 0 0 0 0 0 0 0 0
0 0 0 0 0 0 0 0 0 0 0 0 0 0 0 0 0 0 0 0 0 0 0 0 0 0 0 0 0 0 0 0 0 0 0 0 0 0 0 0 0 0 0 0
0 0 0 0 0 0 0 0 0 0 0 0 0 0 0 0 0 0 0 0 0 0 0 0 0 0 0 0 0 0 0 0 0 0 0 0 0 0 0 0 0 0 0 0
0 0 0 0 0 0 0 0 0 0 0 0 0 0 0 0 0 0 0 0 0 0 0 0 0 0 0 0 0 0 0 0 0 0 0 0 0 0 0 0 0 0 0 0
0 0 0 0 0 0 0 0 0 0 0 0 0 0 0 0 0 0 0 0 0 0 0 0 0 0 0 0 0 0 0 0 0 0 0 0 0 0 0 0 0 0 0 0
0 0 0 0 0 0 0 0 0 0 0 0 0 0 0 0 0 0 0 0 0 0 0 0 0 0 0 0 0 0 0 0 0 0 0 0 0 0 0 0 0 0 0 0
0 0 0 0 0 0 0 0 0 0 0 0 0 0 0 0 0 0 0 0 0 0 0 0 0 0 0 0 0 0 0 0 0 0 0 0 0 0 0 0 0 0 0 0
0 0 0 0 0 0 0 0 0 0 0 0 0 0 0 0 0 0 0 0 0 0 0 0 0 0 0 0 0 0 0 0 0 0 0 0 0 0 0 0 0 0 0 0
0 0 0 0 0 0 0 0 0 0 0 0 0 0 0 0 0 0 0 0 0 0 0 0 0 0 0 0 0 0 0 0 0 0 0 0 0 0 0 0 0 0 0 0
0 0 0 0 0 0 0 0 0 0 0 0 0 0 0 0 0 0 0 0 0 0 0 0 0 0 0 0 0 0 0 0 0 0 0 0 0 0 0 0 0 0 0 0
0 0 0 0 0 0 0 0 0 0 0 0 0 0 0 0 0 0 0 0 0 0 0 0 0 0 0 0 0 0 0 0 0 0 0 0 0 0 0 0 0 0 0 0
0 0 0 0 0 0 0 0 0 0 0 0 0 0 0 0 0 0 0 0 0 0 0 0 0 0 0 0 0 0 0 0 0 0 0 0 0 0 0 0 0 0 0 0
0 0 0 0 0 0 0 0 0 0 0 0 0 0 0 0 0 0 0 0 0 0 0 0 0 0 0 0 0 0 0 0 0 0 0 0 0 0 0 0 0 0 0 0
0 0 0 0 0 0 0 0 0 0 0 0 0 0 0 0 0 0 0 0 0 0 0 0 0 0 0 0 0 0 0 0 0 0 0 0 0 0 0 0 0 0 0 0
0 0 0 0 0 0 0 0 0 0 0 0 0 0 0 0 0 0 0 0 0 0 0 0 0 0 0 0 0 0 0 0 0 0 0 0 0 0 0 0 0 0 0 0
0 0 0 0 0 0 0 0 0 0 0 0 0 0 0 0 0 0 0 0 0 0 0 0 0 0 0 0 0 0 0 0 0 0 0 0 0 0 0 0 0 0 0 0
0 0 0 0 0 0 0 0 0 0 0 0 0 0 0 0 0 0 0 0 0 0 0 0 0 0 0 0 0 0 0 0 0 0 0 0 0 0 0 0 0 0 0 0
0 0 0 0 0 0 0 0 0 0 0 0 0 0 0 0 0 0 0 0 0 0 0 0 0 0 0 0 0 0 0 0 0 0 0 0 0 0 0 0 0 0 0 0
0 0 0 0 0 0 0 0 0 0 0 0 0 0 0 0 0 0 0 0 0 0 0 0 0 0 0 0 0 0 0 0 0 0 0 0 0 0 0 0 0 0 0 0
0 0 0 0 0 0 0 0 0 0 0 0 0 0 0 0 0 0 0 0 0 0 0 0 0 0 0 0 0 0 0 0 0 0 0 0 0 0 0 0 0 0 0 0
0 0 0 0 0 0 0 0 0 0 0 0 0 0 0 0 0 0 0 0 0 0 0 0 0 0 0 0 0 0 0 0 0 0 0 0 0 0 0 0 0 0 0 0
0 0 0 0 0 0 0 0 0 0 0 0 0 0 0 0 0 0 0 0 0 0 0 0 0 0 0 0 0 0 0 0 0 0 0 0 0 0 0 0 0 0 0 0
0 0 0 0 0 0 0 0 0 0 0 0 0 0 0 0 0 0 0 0 0 0 0 0 0 0 0 0 0 0 0 0 0 0 0 0 0 0 0 0 0 0 0 0
0 0 0 0 0 0 0 0 0 0 0 0 0 0 0 0 0 0 0 0 0 0 0 0 0 0 0 0 0 0 0 0 0 0 0 0 0 0 0 0 0 0 0 0
Height
5750 5748 5744 5741 5738 5736 5733 5731 5729 5728 5725 5723 5722 5721 5720 5718 5717 5715 5714 5714 5714 5715 5715 5715 5716 5716 5717 5718 5719 5720 5721 5723 5724 5726 5728 5730 5732 5735 5738 5740 5741 5744 5747 5749
5745 5742 5739 5736 5733 5730 5728 5726 5724 5723 5720 5718 5717 5716 5715 5714 5712 5711 5710 5709 5709 5708 5708 5708 5709 5709 5710 5711 5712 5713 5714 5715 5717 5719 5720 5722 5725 5727 5730 5732 5733 5736 5738 5741
5738 5737 5733 5730 5728 5725 5723 5721 5719 5718 5716 5714 5712 5712 5711 5709 5707 5706 5705 5704 5703 5702 5702 5702 5702 5703 5703 5704 5705 5706 5707 5708 5709 5711 5713 5715 5717 5719 5722 5724 5726 5728 5730 5733
5732 5730 5728 5725 5722 5720 5718 5716 5714 5712 5710 5709 5708 5706 5707 5704 5703 5701 5700 5699 5698 5697 5697 5696 5696 5697 5697 5697 5698 5699 5700 5701 5703 5704 5706 5708 5710 5712 5714 5716 5718 5720 5722 5724
5726 5724 5721 5719 5717 5715 5713 5711 5709 5707 5705 5704 5703 5701 5701 5699 5698 5697 5695 5694 5693 5692 5691 5691 5690 5690 5691 5691 5691 5691 5692 5694 5696 5698 5699 5701 5703 5705 5706 5708 5709 5712 5713 5715
5719 5717 5715 5713 5711 5709 5707 5706 5704 5702 5700 5699 5698 5696 5696 5694 5693 5692 5690 5688 5687 5686 5685 5685 5684 5683 5683 5683 5684 5684 5686 5687 5689 5691 5692 5694 5696 5697 5698 5700 5701 5703 5706 5708
5712 5711 5708 5707 5705 5704 5702 5700 5698 5696 5694 5694 5693 5690 5691 5689 5687 5686 5684 5683 5681 5680 5679 5678 5677 5677 5677 5677 5677 5678 5679 5681 5682 5684 5685 5686 5688 5689 5691 5692 5693 5695 5697 5700
5704 5704 5702 5700 5698 5697 5695 5695 5693 5691 5689 5688 5687 5685 5686 5683 5681 5680 5678 5676 5675 5674 5673 5672 5671 5671 5671 5671 5671 5671 5672 5674 5675 5677 5678 5679 5680 5681 5683 5685 5686 5688 5689 5692
5695 5695 5694 5693 5691 5690 5689 5688 5687 5685 5683 5682 5681 5680 5679 5677 5676 5674 5672 5670 5669 5668 5666 5665 5665 5664 5664 5664 5664 5665 5665 5667 5668 5670 5670 5671 5672 5673 5675 5676 5677 5679 5681 5683
5686 5686 5687 5685 5684 5683 5682 5681 5680 5678 5676 5674 5674 5674 5673 5671 5670 5668 5666 5665 5663 5661 5660 5659 5659 5659 5658 5658 5658 5658 5659 5660 5661 5662 5663 5663 5664 5666 5666 5667 5668 5670 5672 5673
5678 5677 5678 5677 5676 5676 5675 5675 5673 5671 5670 5668 5667 5670 5667 5665 5663 5662 5660 5658 5656 5655 5654 5653 5652 5652 5652 5652 5652 5652 5652 5652 5653 5653 5654 5655 5656 5657 5658 5659 5660 5661 5662 5664
5668 5668 5667 5668 5668 5667 5666 5666 5665 5665 5663 5661 5660 5663 5660 5658 5656 5655 5653 5651 5650 5648 5647 5646 5645 5645 5645 5645 5645 5645 5644 5644 5645 5645 5646 5646 5647 5648 5649 5649 5650 5651 5653 5654
5658 5658 5657 5658 5660 5659 5657 5658 5657 5656 5655 5653 5652 5656 5652 5651 5649 5647 5646 5644 5643 5641 5640 5639 5638 5637 5637 5637 5637 5637 5637 5637 5637 5637 5638 5638 5639 5640 5640 5640 5642 5643 5644 5645
5647 5647 5648 5649 5649 5648 5648 5649 5648 5646 5645 5645 5645 5646 5645 5643 5642 5640 5638 5637 5635 5634 5633 5632 5631 5630 5630 5630 5629 5629 5629 5629 5629 5629 5629 5629 5630 5630 5631 5632 5633 5634 5634 5636
5636 5636 5637 5637 5638 5638 5638 5639 5638 5637 5637 5636 5637 5636 5637 5635 5633 5632 5630 5629 5628 5627 5626 5624 5623 5622 5622 5621 5621 5621 5621 5621 5620 5620 5620 5621 5621 5621 5621 5622 5623 5624 5625 5625
5625 5625 5626 5626 5627 5626 5627 5628 5628 5628 5627 5626 5626 5627 5628 5626 5624 5623 5622 5621 5620 5619 5618 5616 5615 5614 5614 5613 5613 5613 5613 5612 5612 5612 5612 5612 5612 5612 5612 5613 5613 5614 5614 5615
5614 5614 5614 5615 5616 5615 5616 5619 5619 5618 5617 5617 5616 5618 5617 5616 5615 5614 5613 5612 5611 5610 5609 5608 5607 5606 5605 5605 5604 5604 5604 5604 5603 5603 5603 5603 5603 5603 5603 5603 5603 5603 5603 5604
5603 5603 5602 5603 5605 5604 5609 5608 5607 5606 5607 5606 5606 5606 5606 5606 5605 5604 5604 5603 5602 5601 5600 5599 5598 5598 5597 5596 5596 5596 5595 5595 5595 5594 5594 5594 5594 5594 5594 5594 5593 5593 5592 5592
5592 5592 5591 5592 5592 5593 5597 5596 5596 5595 5596 5596 5596 5596 5596 5596 5595 5595 5594 5593 5593 5592 5591 5591 5590 5589 5588 5588 5587 5587 5587 5586 5586 5586 5585 5585 5584 5584 5584 5584 5583 5582 5582 5582
5581 5581 5581 5581 5581 5583 5586 5585 5584 5585 5584 5585 5585 5585 5585 5585 5586 5586 5585 5584 5583 5582 5582 5581 5581 5580 5580 5579 5578 5578 5577 5577 5577 5576 5575 5575 5574 5574 5573 5573 5572 5571 5571 5570
5570 5570 5570 5570 5570 5572 5574 5574 5573 5575 5575 5574 5573 5574 5574 5574 5575 5575 5574 5574 5573 5572 5572 5571 5571 5570 5570 5569 5569 5568 5568 5567 5566 5566 5565 5564 5564 5563 5562 5562 5561 5560 5559 5558
5559 5559 5559 5560 5560 5564 5562 5562 5563 5562 5562 5562 5562 5562 5563 5563 5563 5563 5563 5563 5563 5562 5561 5561 5560 5560 5559 5559 5558 5558 5557 5557 5556 5555 5555 5554 5553 5552 5551 5550 5549 5548 5547 5546
5548 5549 5548 5549 5551 5551 5551 5551 5551 5550 5551 5551 5551 5551 5552 5552 5552 5552 5552 5552 5552 5551 5551 5550 5550 5549 5549 5548 5547 5547 5546 5546 5545 5544 5543 5543 5542 5540 5539 5538 5537 5536 5535 5534
5538 5537 5537 5537 5539 5539 5539 5539 5539 5539 5539 5539 5540 5540 5540 5541 5541 5541 5541 5541 5540 5540 5540 5539 5539 5538 5538 5537 5536 5535 5535 5534 5534 5533 5532 5530 5529 5528 5527 5525 5524 5523 5522 5521
5527 5526 5526 5527 5528 5528 5529 5529 5528 5528 5528 5528 5528 5529 5529 5529 5530 5529 5529 5529 5529 5528 5528 5528 5527 5527 5527 5526 5525 5524 5523 5523 5522 5521 5520 5518 5517 5515 5514 5513 5511 5510 5509 5508
5516 5516 5516 5516 5517 5517 5518 5518 5517 5517 5517 5517 5517 5518 5518 5518 5518 5518 5518 5518 5517 5517 5517 5517 5516 5516 5515 5515 5514 5513 5512 5511 5510 5509 5508 5506 5505 5503 5501 5500 5499 5497 5496 5495
Wind_Speed
22 23 22 22 21 21 20 20 20 20 20 20 19 18 18 19 19 20 21 21 22 23 23 24 25 26 27 26 26 27 27 29 31 34 34 33 33 34 35 35 36 37 37 37
23 23 23 22 22 21 21 21 20 20 20 20 19 18 18 19 20 20 21 21 21 22 23 24 24 25 27 27 26 28 29 29 30 32 33 34 33 33 34 35 35 36 37 37
24 24 23 23 22 22 22 22 21 20 20 20 19 17 17 19 20 21 21 21 21 21 22 23 24 25 26 26 27 27 28 29 30 31 32 33 33 32 33 35 35 35 36 36
24 24 24 23 23 22 22 21 21 21 21 20 19 18 15 17 19 20 21 21 21 22 22 22 23 24 25 26 27 28 29 30 30 30 30 32 32 32 33 35 36 36 35 36
25 25 24 24 23 22 22 22 22 22 22 21 19 19 17 18 18 20 21 22 21 22 22 22 23 24 24 25 27 28 28 30 30 30 30 31 31 32 32 34 35 36 36 35
26 26 25 24 23 22 22 22 23 22 21 20 19 20 19 18 18 20 21 22 23 23 22 23 22 23 24 25 26 27 27 29 29 29 30 31 32 32 32 33 34 34 34 35
27 26 26 25 24 23 23 23 23 24 22 20 20 20 20 19 19 20 20 21 22 23 24 23 23 23 23 24 25 25 26 28 29 29 29 30 31 31 32 32 33 34 35 35
29 28 27 26 26 25 24 24 24 24 24 23 21 22 20 20 19 19 20 21 22 23 24 24 24 24 23 24 26 25 26 27 28 29 29 31 31 30 32 32 33 34 36 36
31 29 28 28 27 26 26 25 24 25 25 25 23 23 22 21 20 20 20 21 22 23 24 23 24 24 24 24 25 26 27 27 28 29 30 30 31 30 31 32 33 35 37 38
32 31 29 29 28 27 27 26 26 26 26 26 25 24 23 22 22 22 22 22 22 22 23 23 24 24 25 25 25 25 26 27 27 28 29 30 30 31 31 34 35 35 37 39
33 33 31 30 30 29 28 27 27 28 28 28 28 25 24 23 23 23 23 23 22 22 23 23 24 24 25 25 26 26 27 27 28 28 29 30 31 32 33 33 35 36 37 39
34 34 33 32 31 30 30 29 29 29 29 29 29 27 25 25 24 24 24 24 23 23 23 24 24 25 25 26 27 28 28 28 29 30 30 30 31 32 34 35 36 36 37 37
36 36 35 34 32 32 31 30 30 31 31 31 30 28 26 26 26 26 25 25 24 24 24 25 25 25 26 26 27 28 29 29 29 30 30 31 33 33 33 34 35 35 36 38
38 37 36 35 34 34 33 31 32 32 33 32 31 29 28 27 27 27 27 26 25 25 25 25 26 26 25 26 27 28 29 30 30 31 31 31 32 33 33 33 34 34 36 37
38 38 37 36 35 35 34 32 32 33 32 33 31 31 29 29 29 29 29 28 27 27 27 26 26 26 26 26 27 28 29 30 31 31 32 32 33 33 33 34 34 35 36 37
37 38 37 37 35 36 35 33 33 33 33 33 33 31 30 31 31 30 30 29 29 28 28 28 27 27 27 27 27 27 28 29 30 31 32 33 34 34 35 35 35 36 37 38
38 38 38 38 37 38 37 34 35 35 35 34 34 32 31 32 31 31 30 30 29 29 28 28 28 28 28 28 28 28 28 28 29 30 31 31 32 33 34 36 37 38 39 40
38 38 40 39 39 39 35 34 35 35 35 35 34 33 32 32 31 31 31 30 30 29 29 29 28 28 28 28 29 29 29 29 29 30 30 31 32 33 34 36 37 38 38 39
37 38 39 39 40 39 36 35 34 34 34 34 35 34 33 33 33 32 32 31 30 30 29 29 30 29 29 29 30 30 31 31 31 31 31 32 33 33 34 35 36 37 38 39
36 36 37 37 37 37 36 36 36 36 35 35 35 35 34 34 34 33 32 32 31 31 31 31 31 31 31 31 31 32 32 32 32 32 33 33 34 35 35 36 37 37 38 39
35 36 36 36 36 36 35 35 35 36 35 34 35 35 35 35 35 34 34 33 33 33 32 32 32 32 33 33 33 33 33 33 34 34 34 35 35 35 36 37 37 38 39 39
34 35 35 36 37 36 35 35 35 36 35 35 35 36 36 35 35 34 34 34 33 33 33 33 33 33 33 33 33 34 34 34 34 35 35 35 36 36 37 38 38 39 39 40
33 34 34 36 36 36 35 36 36 37 37 37 36 36 36 36 35 35 35 34 34 34 34 34 34 34 33 33 34 34 34 34 35 36 36 37 37 38 38 39 39 39 40 40
33 35 35 34 35 35 36 36 36 37 38 37 36 36 36 36 35 35 35 34 34 35 35 35 35 34 34 34 34 35 35 35 36 37 38 38 39 40 40 40 40 41 41 41
33 35 35 35 34 34 35 36 37 37 37 37 37 37 36 36 36 35 35 35 35 35 35 35 35 35 35 35 36 36 36 37 37 38 39 40 40 41 42 41 41 41 42 42
33 34 34 34 34 34 34 34 35 35 35 36 36 36 36 36 35 36 36 36 36 36 36 36 36 36 36 36 37 37 37 38 38 39 39 40 40 41 41 41 41 41 41 42
Wind_Direction
302 305 306 305 303 303 301 299 298 295 290 291 287 283 278 275 269 264 262 263 261 258 256 255 255 256 254 254 253 252 249 247 246 244 244 244 244 243 243 245 246 244 243 243
299 303 304 303 301 300 300 298 296 294 293 293 291 283 279 276 271 267 265 266 265 262 259 258 256 255 256 257 257 254 252 249 246 244 244 244 245 243 243 244 245 245 245 246
298 300 301 302 300 299 298 296 295 295 294 295 293 287 279 275 272 271 269 272 270 267 266 264 261 260 259 257 256 254 253 251 247 245 246 245 245 245 244 244 245 245 245 247
295 297 297 298 298 297 297 295 294 295 295 296 295 290 281 277 273 273 272 273 274 270 269 267 264 263 262 258 256 255 253 251 249 248 250 248 246 245 245 245 246 247 246 247
292 293 293 295 297 296 295 294 293 293 293 293 293 291 288 281 277 275 276 275 276 273 270 270 267 266 264 260 257 255 254 250 250 251 252 251 248 247 247 248 248 247 248 248
289 290 290 291 292 293 291 291 291 291 292 292 294 292 291 288 282 279 277 277 276 274 271 270 269 266 264 260 256 255 254 251 250 251 253 251 249 249 249 248 247 246 246 247
287 287 287 288 288 289 288 289 290 290 291 293 295 293 292 291 287 283 281 280 278 277 275 271 269 267 264 260 256 256 255 253 251 252 253 252 250 251 251 250 248 246 246 247
286 285 284 284 285 286 286 287 288 290 290 292 292 293 295 294 290 287 284 283 281 279 276 272 268 267 266 262 257 256 254 253 254 254 254 254 254 254 251 251 251 249 248 248
283 283 283 283 283 283 283 283 284 286 287 288 289 292 293 292 290 289 286 285 283 281 277 273 269 268 267 264 260 258 255 254 255 256 256 256 255 255 254 253 253 251 251 251
281 281 280 280 280 280 280 281 282 283 286 288 288 291 293 292 289 288 287 287 286 284 279 274 272 270 269 266 262 258 255 254 257 258 258 257 257 256 256 255 254 254 252 251
278 279 279 278 278 279 278 278 278 280 281 285 288 290 291 291 291 289 287 287 287 285 281 275 273 271 270 266 264 261 258 255 257 258 259 257 256 257 259 257 255 255 254 253
276 276 276 276 276 275 276 277 277 277 280 282 284 286 287 288 289 290 287 286 286 285 282 276 272 269 268 265 264 263 260 257 257 258 259 257 256 256 258 257 257 257 255 255
273 273 274 273 273 274 273 274 275 275 276 278 280 283 285 286 287 287 286 285 283 282 282 278 273 269 267 265 264 265 262 260 259 258 259 259 258 258 258 257 256 256 257 258
269 269 270 273 274 275 273 272 273 275 276 277 278 281 283 284 284 284 284 284 284 281 279 278 274 270 267 266 265 266 263 261 261 260 261 261 261 261 260 260 259 259 260 260
267 267 268 269 270 270 271 270 270 272 274 276 277 277 280 281 281 281 282 282 283 282 280 277 274 271 269 267 266 265 264 262 262 262 263 263 263 262 261 262 263 262 262 263
265 267 267 267 269 269 268 268 269 271 273 275 276 276 277 279 278 278 280 281 281 279 279 278 275 272 270 268 267 266 265 264 263 262 263 263 263 262 262 262 263 263 263 263
264 266 267 267 267 267 267 269 269 270 271 273 274 274 275 276 277 277 278 279 280 278 277 276 275 272 269 268 268 267 266 266 265 264 264 263 263 264 264 264 265 266 266 264
264 264 265 267 266 266 270 270 269 270 270 270 271 271 272 274 275 275 276 278 278 278 276 274 273 272 269 267 266 266 266 267 267 265 264 264 264 264 266 265 266 266 267 267
264 264 265 266 267 267 269 270 271 272 271 270 270 270 271 271 272 273 275 276 277 277 277 275 272 271 270 269 267 267 267 267 267 267 267 267 267 267 267 267 267 267 269 269
264 264 265 266 268 270 272 271 271 272 272 272 270 269 270 271 270 271 272 274 275 276 276 276 275 273 272 271 270 269 269 269 269 269 269 270 270 270 269 269 269 269 270 270
264 264 265 266 267 268 271 273 272 273 273 272 270 269 270 270 269 269 269 271 273 275 276 276 276 275 275 274 272 271 270 269 269 270 270 271 271 271 271 270 270 270 270 270
267 267 265 266 266 268 269 270 270 272 273 272 271 270 270 271 270 270 270 270 271 273 274 274 274 274 274 275 274 273 272 271 271 271 272 272 272 272 272 271 270 270 271 271
264 265 266 265 265 266 267 269 270 271 272 273 272 271 271 271 270 270 271 272 272 274 274 274 273 274 274 275 275 275 275 274 273 273 273 273 272 273 273 272 272 272 272 272
264 264 265 265 265 266 267 269 270 271 271 272 272 272 271 271 271 271 272 272 273 273 274 275 276 276 277 277 277 278 277 276 276 275 275 274 274 275 275 275 274 273 273 273
265 265 264 265 265 265 266 267 268 270 269 269 269 270 271 271 272 272 272 273 273 273 274 274 276 277 277 277 278 278 278 277 277 277 278 277 277 277 276 275 274 274 274 274
263 264 265 265 264 264 265 267 267 266 267 267 266 267 268 270 271 272 273 273 273 273 273 275 275 276 277 278 278 278 278 279 279 279 279 279 278 278 276 275 274 274 274 275